Time,TemperatureF,DewpointF,PressureIn,WindDirection,WindDirectionDegrees,WindSpeedMPH,WindSpeedGustMPH,Humidity,HourlyPrecipIn,Conditions,Clouds,dailyrainin,SoftwareType,DateUTC
2013-02-06 00:00:00,26.9,22.1,30.22,NNW,336,0.0,0.0,82,0.00,,,0.00,Wunderground v.1.15,2013-02-06 06:00:00,
2013-02-06 00:05:00,26.7,21.9,30.23,NNW,336,0.0,0.0,82,0.00,,,0.00,Wunderground v.1.15,2013-02-06 06:05:00,
2013-02-06 00:15:00,26.5,22.0,30.24,NNW,336,0.0,0.0,83,0.00,,,0.00,Wunderground v.1.15,2013-02-06 06:15:00,
2013-02-06 00:20:00,26.4,21.9,30.23,NNW,336,0.0,0.0,83,0.00,,,0.00,Wunderground v.1.15,2013-02-06 06:20:00,
2013-02-06 00:30:00,26.2,21.7,30.24,NNW,336,0.0,0.0,83,0.00,,,0.00,Wunderground v.1.15,2013-02-06 06:30:00,
2013-02-06 00:35:00,26.0,21.5,30.23,NNW,336,0.0,0.0,83,0.00,,,0.00,Wunderground v.1.15,2013-02-06 06:35:00,
2013-02-06 00:40:00,25.8,21.3,30.24,NNW,336,0.0,0.0,83,0.00,,,0.00,Wunderground v.1.15,2013-02-06 06:40:00,
2013-02-06 00:45:00,25.6,21.4,30.24,NNW,336,0.0,0.0,84,0.00,,,0.00,Wunderground v.1.15,2013-02-06 06:45:00,
2013-02-06 00:50:00,25.3,21.1,30.24,NNW,336,0.0,0.0,84,0.00,,,0.00,Wunderground v.1.15,2013-02-06 06:50:00,
2013-02-06 01:00:00,25.0,21.1,30.24,NNW,336,0.0,0.0,85,0.00,,,0.00,Wunderground v.1.15,2013-02-06 07:00:00,
2013-02-06 01:05:00,24.8,20.9,30.24,NNW,336,0.0,0.0,85,0.00,,,0.00,Wunderground v.1.15,2013-02-06 07:05:00,
2013-02-06 01:15:00,24.7,20.8,30.24,NNW,336,0.0,0.0,85,0.00,,,0.00,Wunderground v.1.15,2013-02-06 07:15:00,
2013-02-06 01:20:00,24.4,20.5,30.25,NNW,336,0.0,0.0,85,0.00,,,0.00,Wunderground v.1.15,2013-02-06 07:20:00,
2013-02-06 01:25:00,24.2,20.3,30.24,NNW,336,0.0,0.0,85,0.00,,,0.00,Wunderground v.1.15,2013-02-06 07:25:00,
2013-02-06 01:35:00,23.2,19.4,30.24,NNW,336,0.0,0.0,85,0.00,,,0.00,Wunderground v.1.15,2013-02-06 07:35:00,
2013-02-06 01:40:00,22.9,19.3,30.25,NNW,336,0.0,0.0,86,0.00,,,0.00,Wunderground v.1.15,2013-02-06 07:40:00,
2013-02-06 01:45:00,22.4,18.6,30.25,NNW,336,0.0,0.0,85,0.00,,,0.00,Wunderground v.1.15,2013-02-06 07:45:00,
2013-02-06 01:50:00,21.8,18.0,30.25,NNW,336,0.0,0.0,85,0.00,,,0.00,Wunderground v.1.15,2013-02-06 07:50:00,
2013-02-06 02:00:00,20.6,16.8,30.25,NNW,336,0.0,0.0,85,0.00,,,0.00,Wunderground v.1.15,2013-02-06 08:00:00,
2013-02-06 02:05:00,19.8,16.0,30.25,NNW,336,0.0,0.0,85,0.00,,,0.00,Wunderground v.1.15,2013-02-06 08:05:00,
2013-02-06 02:15:00,18.7,15.2,30.26,NNW,336,0.0,0.0,86,0.00,,,0.00,Wunderground v.1.15,2013-02-06 08:15:00,
2013-02-06 02:20:00,18.5,15.0,30.26,NNW,336,0.0,0.0,86,0.00,,,0.00,Wunderground v.1.15,2013-02-06 08:20:00,
2013-02-06 02:25:00,18.3,14.8,30.26,NNW,336,0.0,0.0,86,0.00,,,0.00,Wunderground v.1.15,2013-02-06 08:25:00,
2013-02-06 02:35:00,17.4,13.9,30.26,NNW,336,0.0,0.0,86,0.00,,,0.00,Wunderground v.1.15,2013-02-06 08:35:00,
2013-02-06 02:40:00,17.0,13.8,30.26,NNW,336,0.0,0.0,87,0.00,,,0.00,Wunderground v.1.15,2013-02-06 08:40:00,
2013-02-06 02:45:00,16.9,13.7,30.25,NNW,336,0.0,0.0,87,0.00,,,0.00,Wunderground v.1.15,2013-02-06 08:45:00,
2013-02-06 02:50:00,16.3,13.1,30.25,NNW,336,0.0,0.0,87,0.00,,,0.00,Wunderground v.1.15,2013-02-06 08:50:00,
2013-02-06 03:00:00,15.5,12.3,30.25,NNW,336,0.0,0.0,87,0.00,,,0.00,Wunderground v.1.15,2013-02-06 09:00:00,
2013-02-06 03:05:00,14.9,11.7,30.25,NNW,336,0.0,0.0,87,0.00,,,0.00,Wunderground v.1.15,2013-02-06 09:05:00,
2013-02-06 03:15:00,14.2,11.3,30.25,NNW,336,0.0,0.0,88,0.00,,,0.00,Wunderground v.1.15,2013-02-06 09:15:00,
2013-02-06 03:20:00,13.8,10.9,30.25,NNW,336,0.0,0.0,88,0.00,,,0.00,Wunderground v.1.15,2013-02-06 09:20:00,
2013-02-06 03:25:00,13.6,10.7,30.25,NNW,336,0.0,0.0,88,0.00,,,0.00,Wunderground v.1.15,2013-02-06 09:25:00,
2013-02-06 03:30:00,13.4,10.5,30.25,NNW,336,0.0,0.0,88,0.00,,,0.00,Wunderground v.1.15,2013-02-06 09:30:00,
2013-02-06 03:40:00,12.7,9.8,30.26,NNW,336,0.0,0.0,88,0.00,,,0.00,Wunderground v.1.15,2013-02-06 09:40:00,
2013-02-06 03:45:00,12.5,9.6,30.26,NNW,336,0.0,0.0,88,0.00,,,0.00,Wunderground v.1.15,2013-02-06 09:45:00,
2013-02-06 03:50:00,12.3,9.4,30.26,NNW,336,0.0,0.0,88,0.00,,,0.00,Wunderground v.1.15,2013-02-06 09:50:00,
2013-02-06 04:00:00,11.8,9.2,30.26,NNW,336,0.0,0.0,89,0.00,,,0.00,Wunderground v.1.15,2013-02-06 10:00:00,
2013-02-06 04:05:00,11.7,9.1,30.26,NNW,336,0.0,0.0,89,0.00,,,0.00,Wunderground v.1.15,2013-02-06 10:05:00,
2013-02-06 04:15:00,10.8,8.2,30.27,NNW,336,0.0,0.0,89,0.00,,,0.00,Wunderground v.1.15,2013-02-06 10:15:00,
2013-02-06 04:20:00,10.5,7.9,30.27,NNW,336,0.0,0.0,89,0.00,,,0.00,Wunderground v.1.15,2013-02-06 10:20:00,
2013-02-06 04:25:00,10.2,7.4,30.28,NNW,336,0.0,0.0,88,0.00,,,0.00,Wunderground v.1.15,2013-02-06 10:25:00,
2013-02-06 04:30:00,9.9,7.3,30.27,NNW,336,0.0,0.0,89,0.00,,,0.00,Wunderground v.1.15,2013-02-06 10:30:00,
2013-02-06 04:40:00,9.8,7.2,30.28,NNW,336,0.0,0.0,89,0.00,,,0.00,Wunderground v.1.15,2013-02-06 10:40:00,
2013-02-06 04:45:00,9.7,7.1,30.28,NNW,336,0.0,0.0,89,0.00,,,0.00,Wunderground v.1.15,2013-02-06 10:45:00,
2013-02-06 04:50:00,9.7,7.1,30.28,NNW,336,0.0,0.0,89,0.00,,,0.00,Wunderground v.1.15,2013-02-06 10:50:00,
2013-02-06 05:00:00,9.3,6.7,30.28,NNW,336,0.0,0.0,89,0.00,,,0.00,Wunderground v.1.15,2013-02-06 11:00:00,
2013-02-06 05:05:00,9.1,6.5,30.28,NNW,336,0.0,0.0,89,0.00,,,0.00,Wunderground v.1.15,2013-02-06 11:05:00,
2013-02-06 05:15:00,8.6,6.0,30.27,NNW,336,0.0,0.0,89,0.00,,,0.00,Wunderground v.1.15,2013-02-06 11:15:00,
2013-02-06 05:20:00,8.2,5.6,30.27,NNW,336,0.0,0.0,89,0.00,,,0.00,Wunderground v.1.15,2013-02-06 11:20:00,
2013-02-06 05:25:00,8.1,5.5,30.27,NNW,336,0.0,0.0,89,0.00,,,0.00,Wunderground v.1.15,2013-02-06 11:25:00,
2013-02-06 05:35:00,7.7,5.1,30.28,NNW,336,0.0,0.0,89,0.00,,,0.00,Wunderground v.1.15,2013-02-06 11:35:00,
2013-02-06 05:40:00,7.6,5.0,30.28,NNW,336,0.0,0.0,89,0.00,,,0.00,Wunderground v.1.15,2013-02-06 11:40:00,
2013-02-06 05:45:00,7.3,4.7,30.28,NNW,336,0.0,0.0,89,0.00,,,0.00,Wunderground v.1.15,2013-02-06 11:45:00,
2013-02-06 05:55:00,6.7,4.1,30.28,NNW,336,0.0,0.0,89,0.00,,,0.00,Wunderground v.1.15,2013-02-06 11:55:00,
2013-02-06 06:00:00,6.6,4.0,30.28,NNW,336,0.0,0.0,89,0.00,,,0.00,Wunderground v.1.15,2013-02-06 12:00:00,
2013-02-06 06:05:00,6.5,3.9,30.28,NNW,336,0.0,0.0,89,0.00,,,0.00,Wunderground v.1.15,2013-02-06 12:05:00,
2013-02-06 06:15:00,6.3,3.8,30.28,NNW,337,0.0,0.0,89,0.00,,,0.00,Wunderground v.1.15,2013-02-06 12:15:00,
2013-02-06 06:20:00,6.2,3.7,30.28,NNW,336,0.0,0.0,89,0.00,,,0.00,Wunderground v.1.15,2013-02-06 12:20:00,
2013-02-06 06:30:00,6.1,3.6,30.28,NNW,336,0.0,0.0,89,0.00,,,0.00,Wunderground v.1.15,2013-02-06 12:30:00,
2013-02-06 06:35:00,5.9,3.4,30.28,NNW,336,0.0,0.0,89,0.00,,,0.00,Wunderground v.1.15,2013-02-06 12:35:00,
2013-02-06 06:40:00,5.8,3.3,30.29,NNW,336,0.0,0.0,89,0.00,,,0.00,Wunderground v.1.15,2013-02-06 12:40:00,
2013-02-06 06:45:00,5.8,3.3,30.29,NNW,336,0.0,0.0,89,0.00,,,0.00,Wunderground v.1.15,2013-02-06 12:45:00,
2013-02-06 06:55:00,5.7,3.2,30.30,NNW,336,0.0,0.0,89,0.00,,,0.00,Wunderground v.1.15,2013-02-06 12:55:00,
2013-02-06 07:00:00,5.6,3.1,30.30,NNW,336,0.0,0.0,89,0.00,,,0.00,Wunderground v.1.15,2013-02-06 13:00:00,
2013-02-06 07:05:00,5.4,2.9,30.31,NNW,336,0.0,0.0,89,0.00,,,0.00,Wunderground v.1.15,2013-02-06 13:05:00,
2013-02-06 07:15:00,5.5,3.0,30.31,NNW,336,0.0,0.0,89,0.00,,,0.00,Wunderground v.1.15,2013-02-06 13:15:00,
2013-02-06 07:25:00,5.6,3.1,30.32,NNW,336,0.0,0.0,89,0.00,,,0.00,Wunderground v.1.15,2013-02-06 13:25:00,
2013-02-06 07:30:00,5.7,3.2,30.32,NNW,336,0.0,0.0,89,0.00,,,0.00,Wunderground v.1.15,2013-02-06 13:30:00,
2013-02-06 07:35:00,5.8,3.3,30.32,NNW,336,0.0,0.0,89,0.00,,,0.00,Wunderground v.1.15,2013-02-06 13:35:00,
2013-02-06 07:40:00,6.0,3.5,30.32,NNW,336,0.0,0.0,89,0.00,,,0.00,Wunderground v.1.15,2013-02-06 13:40:00,
2013-02-06 07:45:00,6.1,3.6,30.32,NNW,336,0.0,0.0,89,0.00,,,0.00,Wunderground v.1.15,2013-02-06 13:45:00,
2013-02-06 07:55:00,6.5,3.9,30.31,NNW,336,0.0,0.0,89,0.00,,,0.00,Wunderground v.1.15,2013-02-06 13:55:00,
2013-02-06 08:00:00,6.8,4.2,30.31,NNW,336,0.0,0.0,89,0.00,,,0.00,Wunderground v.1.15,2013-02-06 14:00:00,
2013-02-06 08:05:00,7.1,4.8,30.31,NNW,336,0.0,0.0,90,0.00,,,0.00,Wunderground v.1.15,2013-02-06 14:05:00,
2013-02-06 08:15:00,8.0,5.7,30.32,NNW,336,0.0,0.0,90,0.00,,,0.00,Wunderground v.1.15,2013-02-06 14:15:00,
2013-02-06 08:20:00,8.9,6.6,30.32,NNW,336,0.0,0.0,90,0.00,,,0.00,Wunderground v.1.15,2013-02-06 14:20:00,
2013-02-06 08:30:00,10.7,8.3,30.30,NNW,336,0.0,1.0,90,0.00,,,0.00,Wunderground v.1.15,2013-02-06 14:30:00,
2013-02-06 08:35:00,11.7,9.3,30.33,NNW,336,0.0,1.0,90,0.00,,,0.00,Wunderground v.1.15,2013-02-06 14:35:00,
2013-02-06 08:40:00,12.2,9.8,30.33,NNW,336,0.0,0.0,90,0.00,,,0.00,Wunderground v.1.15,2013-02-06 14:40:00,
2013-02-06 08:50:00,16.3,14.4,30.32,NNW,336,0.0,0.0,92,0.00,,,0.00,Wunderground v.1.15,2013-02-06 14:50:00,
2013-02-06 08:55:00,18.0,15.8,30.32,SSE,150,1.0,1.0,91,0.00,,,0.00,Wunderground v.1.15,2013-02-06 14:55:00,
2013-02-06 09:00:00,19.2,16.7,30.31,SSE,150,2.0,2.0,90,0.00,,,0.00,Wunderground v.1.15,2013-02-06 15:00:00,
2013-02-06 09:05:00,20.2,17.5,30.31,SSE,150,3.0,3.0,89,0.00,,,0.00,Wunderground v.1.15,2013-02-06 15:05:00,
2013-02-06 09:15:00,21.3,18.0,30.31,SSE,151,1.0,2.0,87,0.00,,,0.00,Wunderground v.1.15,2013-02-06 15:15:00,
2013-02-06 09:25:00,22.0,18.2,30.32,SSE,151,0.0,0.0,85,0.00,,,0.00,Wunderground v.1.15,2013-02-06 15:25:00,
2013-02-06 09:30:00,22.6,18.8,30.32,SSE,151,0.0,0.0,85,0.00,,,0.00,Wunderground v.1.15,2013-02-06 15:30:00,
2013-02-06 09:35:00,23.0,18.9,30.32,SSE,151,0.0,4.0,84,0.00,,,0.00,Wunderground v.1.15,2013-02-06 15:35:00,
2013-02-06 09:40:00,23.1,18.4,30.31,SSE,151,1.0,2.0,82,0.00,,,0.00,Wunderground v.1.15,2013-02-06 15:40:00,
2013-02-06 09:50:00,23.3,18.6,30.30,SSE,157,2.0,2.0,82,0.00,,,0.00,Wunderground v.1.15,2013-02-06 15:50:00,
2013-02-06 09:55:00,23.7,19.0,30.30,SSE,150,1.0,2.0,82,0.00,,,0.00,Wunderground v.1.15,2013-02-06 15:55:00,
2013-02-06 10:00:00,24.3,19.6,30.30,SE,141,0.0,0.0,82,0.00,,,0.00,Wunderground v.1.15,2013-02-06 16:00:00,
2013-02-06 10:05:00,24.4,19.1,30.30,ESE,119,0.0,0.0,80,0.00,,,0.00,Wunderground v.1.15,2013-02-06 16:05:00,
2013-02-06 10:15:00,24.3,18.7,30.30,SSE,157,2.0,2.0,79,0.00,,,0.00,Wunderground v.1.15,2013-02-06 16:15:00,
2013-02-06 10:20:00,24.1,18.8,30.31,SE,142,3.0,3.0,80,0.00,,,0.00,Wunderground v.1.15,2013-02-06 16:20:00,
2013-02-06 10:30:00,24.5,19.2,30.31,SSE,162,3.0,6.0,80,0.00,,,0.00,Wunderground v.1.15,2013-02-06 16:30:00,
2013-02-06 10:35:00,25.0,20.0,30.31,SSE,158,3.0,6.0,81,0.00,,,0.00,Wunderground v.1.15,2013-02-06 16:35:00,
2013-02-06 10:40:00,25.4,19.8,30.31,SE,146,2.0,2.0,79,0.00,,,0.00,Wunderground v.1.15,2013-02-06 16:40:00,
2013-02-06 10:45:00,25.7,20.4,30.31,SE,132,2.0,2.0,80,0.00,,,0.00,Wunderground v.1.15,2013-02-06 16:45:00,
2013-02-06 10:50:00,26.0,20.4,30.32,SE,142,2.0,2.0,79,0.00,,,0.00,Wunderground v.1.15,2013-02-06 16:50:00,
2013-02-06 11:00:00,26.5,20.9,30.33,SSE,152,2.0,6.0,79,0.00,,,0.00,Wunderground v.1.15,2013-02-06 17:00:00,
2013-02-06 11:05:00,27.0,21.4,30.32,SE,144,3.0,6.0,79,0.00,,,0.00,Wunderground v.1.15,2013-02-06 17:05:00,
2013-02-06 11:15:00,28.3,22.3,30.32,SSE,155,2.0,4.0,78,0.00,,,0.00,Wunderground v.1.15,2013-02-06 17:15:00,
2013-02-06 11:20:00,28.6,22.9,30.31,SSE,150,3.0,4.0,79,0.00,,,0.00,Wunderground v.1.15,2013-02-06 17:20:00,
2013-02-06 11:25:00,29.1,23.1,30.31,SSE,150,3.0,4.0,78,0.00,,,0.00,Wunderground v.1.15,2013-02-06 17:25:00,
2013-02-06 11:35:00,30.0,24.0,30.30,SSE,153,4.0,5.0,78,0.00,,,0.00,Wunderground v.1.15,2013-02-06 17:35:00,
2013-02-06 11:40:00,30.3,24.3,30.30,South,169,5.0,7.0,78,0.00,,,0.00,Wunderground v.1.15,2013-02-06 17:40:00,
2013-02-06 11:45:00,30.3,24.3,30.30,SSE,147,6.0,7.0,78,0.00,,,0.00,Wunderground v.1.15,2013-02-06 17:45:00,
2013-02-06 11:50:00,30.6,24.9,30.30,SE,140,6.0,8.0,79,0.00,,,0.00,Wunderground v.1.15,2013-02-06 17:50:00,
2013-02-06 11:55:00,30.7,25.0,30.30,SSE,165,5.0,8.0,79,0.00,,,0.00,Wunderground v.1.15,2013-02-06 17:55:00,
2013-02-06 12:00:00,30.7,25.0,30.30,SSE,167,5.0,5.0,79,0.00,,,0.00,Wunderground v.1.15,2013-02-06 18:00:00,
2013-02-06 12:05:00,30.8,25.1,30.30,SSE,164,5.0,5.0,79,0.00,,,0.00,Wunderground v.1.15,2013-02-06 18:05:00,
2013-02-06 12:15:00,31.0,25.2,30.29,SSE,166,4.0,5.0,79,0.00,,,0.00,Wunderground v.1.15,2013-02-06 18:15:00,
2013-02-06 12:25:00,31.4,25.9,30.29,SSE,163,3.0,5.0,80,0.00,,,0.00,Wunderground v.1.15,2013-02-06 18:25:00,
2013-02-06 12:30:00,31.3,25.5,30.29,SSE,156,4.0,6.0,79,0.00,,,0.00,Wunderground v.1.15,2013-02-06 18:30:00,
2013-02-06 12:35:00,31.6,26.1,30.29,SE,138,4.0,6.0,80,0.00,,,0.01,Wunderground v.1.15,2013-02-06 18:35:00,
2013-02-06 12:40:00,31.7,25.9,30.28,SSE,152,3.0,3.0,79,0.00,,,0.01,Wunderground v.1.15,2013-02-06 18:40:00,
2013-02-06 12:45:00,31.8,26.3,30.28,SSE,155,4.0,6.0,80,0.00,,,0.01,Wunderground v.1.15,2013-02-06 18:45:00,
2013-02-06 12:50:00,31.9,26.4,30.28,South,172,5.0,5.0,80,0.00,,,0.01,Wunderground v.1.15,2013-02-06 18:50:00,
2013-02-06 13:00:00,32.3,26.8,30.27,South,169,5.0,5.0,80,0.00,,,0.01,Wunderground v.1.15,2013-02-06 19:00:00,
2013-02-06 13:05:00,32.6,27.1,30.27,SSE,163,4.0,5.0,80,0.00,,,0.01,Wunderground v.1.15,2013-02-06 19:05:00,
2013-02-06 13:15:00,32.9,27.1,30.26,SSE,149,4.0,6.0,79,0.00,,,0.01,Wunderground v.1.15,2013-02-06 19:15:00,
2013-02-06 13:20:00,32.8,27.0,30.25,South,171,5.0,7.0,79,0.00,,,0.01,Wunderground v.1.15,2013-02-06 19:20:00,
2013-02-06 13:25:00,33.0,27.2,30.25,SE,140,5.0,7.0,79,0.00,,,0.01,Wunderground v.1.15,2013-02-06 19:25:00,
2013-02-06 13:30:00,33.2,27.4,30.25,SE,142,5.0,5.0,79,0.00,,,0.01,Wunderground v.1.15,2013-02-06 19:30:00,
2013-02-06 13:40:00,33.9,27.8,30.25,SSE,165,4.0,4.0,78,0.00,,,0.01,Wunderground v.1.15,2013-02-06 19:40:00,
2013-02-06 13:45:00,33.9,27.8,30.25,SSE,157,4.0,6.0,78,0.00,,,0.01,Wunderground v.1.15,2013-02-06 19:45:00,
2013-02-06 13:50:00,33.8,28.0,30.25,SSE,155,3.0,3.0,79,0.00,,,0.01,Wunderground v.1.15,2013-02-06 19:50:00,
2013-02-06 13:55:00,33.8,28.0,30.24,SE,142,3.0,5.0,79,0.00,,,0.01,Wunderground v.1.15,2013-02-06 19:55:00,
2013-02-06 14:00:00,33.8,28.3,30.24,SSE,159,4.0,4.0,80,0.00,,,0.01,Wunderground v.1.15,2013-02-06 20:00:00,
2013-02-06 14:05:00,33.7,28.2,30.25,SSE,152,5.0,5.0,80,0.00,,,0.01,Wunderground v.1.15,2013-02-06 20:05:00,
2013-02-06 14:15:00,34.0,28.5,30.25,SSE,165,4.0,5.0,80,0.00,,,0.01,Wunderground v.1.15,2013-02-06 20:15:00,
2013-02-06 14:20:00,34.4,28.9,30.25,SSE,160,3.0,3.0,80,0.00,,,0.01,Wunderground v.1.15,2013-02-06 20:20:00,
2013-02-06 14:25:00,34.5,29.0,30.25,SSE,160,1.0,3.0,80,0.00,,,0.01,Wunderground v.1.15,2013-02-06 20:25:00,
2013-02-06 14:35:00,35.2,29.3,30.26,SE,146,5.0,11.0,79,0.00,,,0.01,Wunderground v.1.15,2013-02-06 20:35:00,
2013-02-06 14:40:00,35.5,29.6,30.26,SSE,161,5.0,5.0,79,0.00,,,0.01,Wunderground v.1.15,2013-02-06 20:40:00,
2013-02-06 14:45:00,36.0,30.1,30.25,SSE,159,4.0,5.0,79,0.00,,,0.01,Wunderground v.1.15,2013-02-06 20:45:00,
2013-02-06 14:50:00,36.0,29.8,30.25,SE,144,4.0,6.0,78,0.00,,,0.01,Wunderground v.1.15,2013-02-06 20:50:00,
2013-02-06 14:55:00,36.2,30.3,30.25,SSE,148,5.0,6.0,79,0.00,,,0.01,Wunderground v.1.15,2013-02-06 20:55:00,
2013-02-06 15:00:00,36.4,30.2,30.24,SSE,167,5.0,5.0,78,0.00,,,0.01,Wunderground v.1.15,2013-02-06 21:00:00,
2013-02-06 15:05:00,36.4,30.2,30.24,SSE,161,6.0,8.0,78,0.00,,,0.01,Wunderground v.1.15,2013-02-06 21:05:00,
2013-02-06 15:15:00,36.5,30.6,30.24,South,169,4.0,5.0,79,0.00,,,0.02,Wunderground v.1.15,2013-02-06 21:15:00,
2013-02-06 15:20:00,36.7,30.8,30.24,SE,138,2.0,7.0,79,0.00,,,0.02,Wunderground v.1.15,2013-02-06 21:20:00,
2013-02-06 15:30:00,36.6,30.7,30.23,SSE,152,5.0,5.0,79,0.00,,,0.02,Wunderground v.1.15,2013-02-06 21:30:00,
2013-02-06 15:35:00,36.5,30.6,30.22,SSE,150,3.0,5.0,79,0.00,,,0.02,Wunderground v.1.15,2013-02-06 21:35:00,
2013-02-06 15:40:00,36.4,30.8,30.22,SE,146,3.0,5.0,80,0.00,,,0.03,Wunderground v.1.15,2013-02-06 21:40:00,
2013-02-06 15:45:00,36.4,30.8,30.22,SSE,151,3.0,5.0,80,0.00,,,0.03,Wunderground v.1.15,2013-02-06 21:45:00,
2013-02-06 15:50:00,36.4,31.1,30.23,SE,146,3.0,4.0,81,0.00,,,0.03,Wunderground v.1.15,2013-02-06 21:50:00,
2013-02-06 16:00:00,36.5,31.2,30.22,SSE,150,4.0,4.0,81,0.00,,,0.03,Wunderground v.1.15,2013-02-06 22:00:00,
2013-02-06 16:05:00,36.4,31.1,30.22,SSE,151,3.0,5.0,81,0.00,,,0.03,Wunderground v.1.15,2013-02-06 22:05:00,
2013-02-06 16:15:00,36.1,31.1,30.21,SE,142,1.0,1.0,82,0.00,,,0.03,Wunderground v.1.15,2013-02-06 22:15:00,
2013-02-06 16:20:00,35.8,30.8,30.21,SE,142,1.0,1.0,82,0.00,,,0.03,Wunderground v.1.15,2013-02-06 22:20:00,
2013-02-06 16:30:00,35.5,31.1,30.21,SE,143,1.0,1.0,84,0.00,,,0.03,Wunderground v.1.15,2013-02-06 22:30:00,
2013-02-06 16:35:00,35.5,31.1,30.21,SE,144,1.0,2.0,84,0.00,,,0.04,Wunderground v.1.15,2013-02-06 22:35:00,
2013-02-06 16:40:00,35.5,31.1,30.21,SE,143,1.0,2.0,84,0.00,,,0.04,Wunderground v.1.15,2013-02-06 22:40:00,
2013-02-06 16:45:00,35.6,31.2,30.20,SSE,156,2.0,2.0,84,0.00,,,0.04,Wunderground v.1.15,2013-02-06 22:45:00,
2013-02-06 16:50:00,35.6,31.2,30.20,SSE,156,3.0,3.0,84,0.00,,,0.04,Wunderground v.1.15,2013-02-06 22:50:00,
2013-02-06 16:55:00,35.7,31.3,30.20,SE,141,3.0,3.0,84,0.00,,,0.04,Wunderground v.1.15,2013-02-06 22:55:00,
2013-02-06 17:05:00,35.6,31.2,30.20,SSE,149,3.0,5.0,84,0.00,,,0.04,Wunderground v.1.15,2013-02-06 23:05:00,
2013-02-06 17:15:00,35.3,30.9,30.19,SSE,151,3.0,6.0,84,0.00,,,0.04,Wunderground v.1.15,2013-02-06 23:15:00,
2013-02-06 17:20:00,35.2,31.1,30.19,SSE,152,3.0,3.0,85,0.00,,,0.04,Wunderground v.1.15,2013-02-06 23:20:00,
2013-02-06 17:25:00,35.1,31.0,30.19,SSE,152,2.0,3.0,85,0.00,,,0.04,Wunderground v.1.15,2013-02-06 23:25:00,
2013-02-06 17:35:00,34.9,31.1,30.19,SSE,147,2.0,2.0,86,0.00,,,0.04,Wunderground v.1.15,2013-02-06 23:35:00,
2013-02-06 17:40:00,34.9,31.1,30.19,SSE,147,1.0,1.0,86,0.00,,,0.04,Wunderground v.1.15,2013-02-06 23:40:00,
2013-02-06 17:45:00,34.9,31.1,30.19,SE,141,1.0,2.0,86,0.00,,,0.04,Wunderground v.1.15,2013-02-06 23:45:00,
2013-02-06 17:50:00,35.0,31.2,30.19,SE,141,1.0,1.0,86,0.00,,,0.04,Wunderground v.1.15,2013-02-06 23:50:00,
2013-02-06 17:55:00,35.0,31.5,30.18,SE,145,2.0,2.0,87,0.00,,,0.04,Wunderground v.1.15,2013-02-06 23:55:00,
2013-02-06 18:05:00,35.2,31.7,30.20,SSE,157,2.0,4.0,87,0.00,,,0.05,Wunderground v.1.15,2013-02-07 00:05:00,
2013-02-06 18:15:00,35.6,31.8,30.19,SSE,164,4.0,5.0,86,0.00,,,0.05,Wunderground v.1.15,2013-02-07 00:15:00,
2013-02-06 18:20:00,35.5,31.7,30.19,SSE,153,5.0,5.0,86,0.00,,,0.05,Wunderground v.1.15,2013-02-07 00:20:00,
2013-02-06 18:25:00,35.5,31.7,30.19,SSE,153,5.0,6.0,86,0.00,,,0.05,Wunderground v.1.15,2013-02-07 00:25:00,
2013-02-06 18:30:00,35.5,31.7,30.19,SSE,163,6.0,6.0,86,0.00,,,0.05,Wunderground v.1.15,2013-02-07 00:30:00,
2013-02-06 18:40:00,35.6,31.8,30.19,SE,140,6.0,7.0,86,0.00,,,0.05,Wunderground v.1.15,2013-02-07 00:40:00,
2013-02-06 18:45:00,35.5,31.7,30.19,SE,138,6.0,8.0,86,0.00,,,0.05,Wunderground v.1.15,2013-02-07 00:45:00,
2013-02-06 18:50:00,35.6,31.8,30.19,SE,145,6.0,6.0,86,0.00,,,0.05,Wunderground v.1.15,2013-02-07 00:50:00,
2013-02-06 18:55:00,35.5,31.7,30.19,SSE,159,6.0,7.0,86,0.00,,,0.05,Wunderground v.1.15,2013-02-07 00:55:00,
2013-02-06 19:05:00,35.4,31.9,30.19,SSE,156,6.0,8.0,87,0.00,,,0.05,Wunderground v.1.15,2013-02-07 01:05:00,
2013-02-06 19:15:00,35.3,31.8,30.19,SE,140,5.0,8.0,87,0.00,,,0.05,Wunderground v.1.15,2013-02-07 01:15:00,
2013-02-06 19:25:00,35.2,33.1,30.19,SE,145,5.0,6.0,92,0.00,,,0.05,Wunderground v.1.15,2013-02-07 01:25:00,
2013-02-06 19:30:00,35.2,33.1,30.19,SE,146,3.0,3.0,92,0.00,,,0.05,Wunderground v.1.15,2013-02-07 01:30:00,
2013-02-06 19:35:00,35.2,33.1,30.19,SSE,148,3.0,6.0,92,0.00,,,0.05,Wunderground v.1.15,2013-02-07 01:35:00,
2013-02-06 19:40:00,35.2,31.4,30.19,SSE,151,4.0,4.0,86,0.00,,,0.05,Wunderground v.1.15,2013-02-07 01:40:00,
2013-02-06 19:45:00,35.3,31.5,30.18,SE,138,3.0,4.0,86,0.00,,,0.05,Wunderground v.1.15,2013-02-07 01:45:00,
2013-02-06 19:50:00,35.3,31.5,30.18,SE,140,2.0,2.0,86,0.00,,,0.05,Wunderground v.1.15,2013-02-07 01:50:00,
2013-02-06 20:00:00,35.4,31.6,30.18,SSE,151,1.0,1.0,86,0.00,,,0.05,Wunderground v.1.15,2013-02-07 02:00:00,
2013-02-06 20:05:00,35.4,31.6,30.18,ESE,109,0.0,2.0,86,0.00,,,0.05,Wunderground v.1.15,2013-02-07 02:05:00,
2013-02-06 20:15:00,34.9,31.1,30.16,SE,138,1.0,2.0,86,0.00,,,0.05,Wunderground v.1.15,2013-02-07 02:15:00,
2013-02-06 20:20:00,34.8,31.0,30.16,SE,142,2.0,2.0,86,0.00,,,0.05,Wunderground v.1.15,2013-02-07 02:20:00,
2013-02-06 20:30:00,35.0,31.5,30.16,ESE,119,1.0,2.0,87,0.00,,,0.05,Wunderground v.1.15,2013-02-07 02:30:00,
2013-02-06 20:35:00,34.8,31.3,30.16,ESE,119,1.0,2.0,87,0.00,,,0.05,Wunderground v.1.15,2013-02-07 02:35:00,
2013-02-06 20:40:00,34.7,31.2,30.16,SSE,150,1.0,4.0,87,0.00,,,0.05,Wunderground v.1.15,2013-02-07 02:40:00,
2013-02-06 20:45:00,35.0,31.5,30.16,SSE,157,3.0,7.0,87,0.00,,,0.05,Wunderground v.1.15,2013-02-07 02:45:00,
2013-02-06 20:50:00,35.4,31.9,30.16,SSE,156,7.0,7.0,87,0.00,,,0.05,Wunderground v.1.15,2013-02-07 02:50:00,
2013-02-06 20:55:00,35.4,31.6,30.16,SSE,147,8.0,9.0,86,0.00,,,0.05,Wunderground v.1.15,2013-02-07 02:55:00,
2013-02-06 21:05:00,35.8,32.0,30.17,SE,141,5.0,7.0,86,0.00,,,0.05,Wunderground v.1.15,2013-02-07 03:05:00,
2013-02-06 21:15:00,35.7,31.6,30.17,SE,142,0.0,2.0,85,0.00,,,0.05,Wunderground v.1.15,2013-02-07 03:15:00,
2013-02-06 21:20:00,35.5,31.4,30.16,SE,143,0.0,2.0,85,0.00,,,0.05,Wunderground v.1.15,2013-02-07 03:20:00,
2013-02-06 21:25:00,35.4,31.6,30.16,ESE,123,1.0,2.0,86,0.00,,,0.05,Wunderground v.1.15,2013-02-07 03:25:00,
2013-02-06 21:30:00,35.4,31.6,30.17,East,82,1.0,1.0,86,0.00,,,0.05,Wunderground v.1.15,2013-02-07 03:30:00,
2013-02-06 21:35:00,35.3,31.5,30.17,East,82,0.0,1.0,86,0.00,,,0.05,Wunderground v.1.15,2013-02-07 03:35:00,
2013-02-06 21:40:00,35.1,31.3,30.17,East,82,0.0,0.0,86,0.00,,,0.05,Wunderground v.1.15,2013-02-07 03:40:00,
2013-02-06 21:45:00,35.1,31.3,30.18,East,82,0.0,0.0,86,0.00,,,0.05,Wunderground v.1.15,2013-02-07 03:45:00,
2013-02-06 21:55:00,34.7,31.2,30.17,SSE,153,2.0,2.0,87,0.00,,,0.05,Wunderground v.1.15,2013-02-07 03:55:00,
2013-02-06 22:00:00,34.5,31.0,30.17,SSE,155,3.0,4.0,87,0.00,,,0.05,Wunderground v.1.15,2013-02-07 04:00:00,
2013-02-06 22:05:00,34.7,31.2,30.17,SE,144,2.0,4.0,87,0.00,,,0.05,Wunderground v.1.15,2013-02-07 04:05:00,
2013-02-06 22:15:00,34.9,31.4,30.16,SE,144,3.0,3.0,87,0.00,,,0.05,Wunderground v.1.15,2013-02-07 04:15:00,
2013-02-06 22:20:00,35.0,31.2,30.16,SE,140,2.0,2.0,86,0.00,,,0.05,Wunderground v.1.15,2013-02-07 04:20:00,
2013-02-06 22:25:00,35.4,31.6,30.16,SSE,148,4.0,4.0,86,0.00,,,0.05,Wunderground v.1.15,2013-02-07 04:25:00,
2013-02-06 22:30:00,35.5,31.4,30.16,SSE,150,5.0,5.0,85,0.00,,,0.05,Wunderground v.1.15,2013-02-07 04:30:00,
2013-02-06 22:35:00,35.3,31.2,30.16,SSE,148,4.0,5.0,85,0.00,,,0.05,Wunderground v.1.15,2013-02-07 04:35:00,
2013-02-06 22:45:00,35.4,31.3,30.15,SE,140,6.0,8.0,85,0.00,,,0.05,Wunderground v.1.15,2013-02-07 04:45:00,
2013-02-06 22:50:00,35.4,31.3,30.16,SSE,161,6.0,6.0,85,0.00,,,0.05,Wunderground v.1.15,2013-02-07 04:50:00,
2013-02-06 22:55:00,35.2,31.1,30.16,SSE,159,6.0,6.0,85,0.00,,,0.05,Wunderground v.1.15,2013-02-07 04:55:00,
2013-02-06 23:00:00,35.2,31.1,30.16,SSE,150,5.0,5.0,85,0.00,,,0.05,Wunderground v.1.15,2013-02-07 05:00:00,
2013-02-06 23:05:00,35.0,30.9,30.16,SE,141,5.0,5.0,85,0.00,,,0.05,Wunderground v.1.15,2013-02-07 05:05:00,
2013-02-06 23:15:00,34.7,30.9,30.16,SE,143,5.0,5.0,86,0.00,,,0.05,Wunderground v.1.15,2013-02-07 05:15:00,
2013-02-06 23:20:00,34.5,30.7,30.17,SE,142,3.0,3.0,86,0.00,,,0.05,Wunderground v.1.15,2013-02-07 05:20:00,
2013-02-06 23:25:00,34.4,30.6,30.16,SE,143,2.0,3.0,86,0.00,,,0.05,Wunderground v.1.15,2013-02-07 05:25:00,
2013-02-06 23:30:00,34.4,30.6,30.17,SE,143,2.0,4.0,86,0.00,,,0.05,Wunderground v.1.15,2013-02-07 05:30:00,
2013-02-06 23:35:00,34.4,30.9,30.17,SE,143,1.0,4.0,87,0.00,,,0.05,Wunderground v.1.15,2013-02-07 05:35:00,
2013-02-06 23:40:00,34.4,30.9,30.16,SE,144,2.0,5.0,87,0.00,,,0.05,Wunderground v.1.15,2013-02-07 05:40:00,
2013-02-06 23:45:00,34.3,30.8,30.17,SSE,150,4.0,6.0,87,0.00,,,0.05,Wunderground v.1.15,2013-02-07 05:45:00,
2013-02-06 23:50:00,34.4,30.9,30.17,SSE,155,6.0,6.0,87,0.00,,,0.05,Wunderground v.1.15,2013-02-07 05:50:00,